Dewpoint
-23 -23 -23 -24 -24 -23 -23 -22 -22 -21 -19 -17 -17 -18 -18 -17 -16 -16 -18 -12 -6 -5 -9 -18 -12 -21 -9 -6 -7 -7 -3 -2 -3 -5 3 2 5 5 7 7 10 10 11 12 12
-24 -24 -24 -24 -25 -25 -24 -24 -24 -24 -22 -20 -18 -18 -18 -17 -16 -14 -9 -5 -4 -9 -14 -18 -11 -10 -6 -8 -8 -7 -4 -4 -6 -7 2 -0 1 5 5 11 11 10 11 11 9
-23 -23 -23 -24 -25 -25 -25 -24 -24 -24 -23 -22 -19 -18 -17 -17 -11 1 -3 -8 -6 -11 -22 -9 -9 -15 -9 -9 -10 -9 -6 -7 -7 -8 -7 -2 5 4 10 13 11 9 8 8 7
-21 -22 -22 -23 -24 -25 -25 -24 -23 -20 -20 -20 -19 -18 -17 -16 3 -1 -7 -6 -8 -17 -17 -10 -10 -10 -14 -14 -16 -15 -14 -11 -10 -9 -9 -5 -3 6 8 12 10 7 7 7 6
-20 -20 -21 -22 -24 -25 -25 -23 -14 -13 -14 -15 -17 -17 -16 -6 -3 -2 -6 -4 -8 -21 -11 -12 -13 -15 -13 -15 -16 -16 -17 -15 -13 -12 -11 -9 -8 3 12 10 7 5 7 7 6
-18 -19 -20 -22 -23 -25 -25 -16 -13 -12 -11 -14 -16 -17 -16 -2 -8 -7 -7 -4 -7 -14 -13 -12 -14 -16 -15 -15 -15 -16 -16 -16 -16 -15 -13 -9 -9 -5 11 9 8 5 5 7 7
-15 -16 -18 -21 -22 -26 -21 -16 -13 -10 -10 -11 -15 -16 -14 -9 -6 -4 -4 -5 -6 -7 -7 -9 -12 -15 -14 -15 -17 -16 -15 -16 -15 -15 -13 -11 -7 -7 8 8 7 8 9 10 7
-11 -14 -16 -20 -22 -25 -20 -18 -11 -12 -12 -9 -9 -11 -5 -5 -7 -4 -4 -4 -6 -9 -9 -10 -14 -13 -13 -14 -15 -12 -13 -13 -15 -15 -14 -11 -8 -8 8 9 12 12 9 11 11
-9 -11 -15 -19 -24 -24 -22 -12 -10 -12 -12 -9 -3 -0 4 -8 -11 -6 -6 -6 -7 -8 -10 -13 -15 -12 -13 -13 -11 -8 -8 -13 -14 -16 -13 -11 -8 -8 1 11 13 14 11 10 9
-8 -9 -13 -18 -24 -23 -8 -7 -7 -10 -6 -6 4 5 -0 -3 -12 -10 -6 -5 -5 -7 -13 -15 -15 -11 -12 -11 -7 -8 -8 -11 -11 -13 -13 -10 -7 -7 -8 -6 12 12 10 8 7
-8 -9 -12 -18 -23 -11 -5 -1 -1 0 -0 2 1 -5 -6 -8 -8 -9 -7 -7 -6 -12 -10 -13 -11 -9 -10 -11 -10 -10 -9 -8 -8 -11 -10 -9 -6 -5 -7 1 10 8 6 8 9
-8 -9 -10 -19 -22 -8 -5 -6 -7 -6 -4 -3 -2 -7 -8 -9 -10 -10 -7 -6 -6 -3 -9 -8 -9 -10 -9 -10 -9 -9 -9 -8 -9 -11 -9 -8 -7 -7 -5 -6 8 8 9 10 12
-7 -9 -10 -18 -10 -6 -5 -7 -7 -6 -3 -2 -5 -8 -8 -8 -9 -9 -6 -6 -5 -3 -3 -3 -6 -9 -10 -9 -9 -11 -10 -9 -9 -10 -10 -9 -7 -6 -3 -4 -1 3 4 13 11
-7 -9 -10 -17 -5 -3 -3 -5 -6 -5 1 -0 -9 -9 -9 -10 -9 -10 -7 -6 -6 -4 -5 -6 -8 -9 -9 -8 -10 -8 -9 -9 -10 -9 -6 -7 -2 -4 -3 -2 3 2 2 14 13
-6 -8 -10 -16 -11 -1 -4 -3 -5 -3 8 -5 -8 -9 -10 -11 -12 -11 -9 -9 -5 -5 -6 -4 -7 -8 -7 -7 -10 -8 -7 -5 -4 -3 -1 -3 -6 -7 -8 -0 1 3 -0 1 10
-6 -8 -10 -7 -1 0 -3 -3 -4 2 4 -7 -9 -8 -10 -11 -10 -9 -8 -9 -9 -5 -4 -5 -9 -7 -7 -8 -7 -7 -6 -3 -3 -3 -0 -3 -2 -4 -5 -3 -1 1 3 1 11
-6 -7 -10 -12 2 -2 -2 -1 2 2 -8 -8 -10 -10 -8 -7 -8 -7 -6 -6 -3 -0 1 0 -2 -1 -5 -7 -7 -6 -4 0 1 1 2 -0 1 -0 -4 6 6 0 3 10 4
-6 -7 -9 -10 -11 -1 -1 3 3 -1 -5 -10 -11 -11 -9 -9 -8 -7 -5 -3 -4 -1 0 3 6 2 -4 -5 -4 -3 -0 2 6 6 2 -3 2 4 4 7 7 8 10 11 16
-6 -7 -3 -1 -1 -1 1 5 0 -3 -6 -10 -12 -12 -9 -10 -9 -6 -4 3 2 0 2 3 5 2 1 -3 -5 -2 -1 -1 2 2 3 1 5 4 4 4 6 8 8 10 9
-7 -3 -3 2 -2 -1 4 4 1 -3 -6 -7 -7 -7 -6 -6 -6 -9 -7 2 1 -1 -1 1 4 1 2 -3 -4 -4 2 5 7 8 8 6 9 9 7 5 4 8 8 11 9
-7 2 1 -1 -3 -0 5 2 -1 -6 -5 -3 -2 1 -3 -3 -7 -7 0 2 -0 -0 -3 2 4 4 2 0 -1 -2 5 8 6 8 7 8 8 7 4 6 5 5 8 5 5
-5 4 -0 -3 -1 1 2 0 -3 -6 -7 -8 -6 -2 -0 1 1 -4 3 2 -2 -3 1 5 4 6 4 0 -4 -6 -2 5 5 1 10 9 9 4 5 1 2 2 2 6 4
-3 1 -3 -4 1 1 1 1 -4 -5 -5 -5 -4 -2 -0 0 2 -0 0 -1 -3 2 4 1 6 6 1 -2 -3 -2 3 6 7 7 5 6 4 3 3 4 2 5 6 7 5
1 4 -1 -3 -4 1 3 2 -2 -6 -5 -4 -0 -1 1 1 1 1 0 1 -3 -0 -3 -2 3 4 4 1 -2 0 -0 6 7 8 6 3 -0 -3 1 3 6 5 7 8 9
3 3 -0 3 1 1 1 0 0 -1 -5 -5 -3 -1 1 3 2 1 2 1 -1 -2 -2 1 3 3 3 2 0 -0 -2 -2 5 5 4 -2 -3 -5 -5 0 6 6 7 8 8
1 0 -0 0 -1 0 1 -0 -1 -2 -2 -1 -0 0 1 3 4 5 4 4 6 1 1 2 5 5 6 3 1 0 -2 -4 -5 -5 -5 -5 -5 -9 0 9 10 9 9 9 9
1 0 0 1 1 1 1 1 -0 -2 -3 -4 -2 -0 3 0 -2 -3 -3 -1 1 2 4 4 5 6 6 3 1 2 -0 -1 -2 -3 -3 -2 -4 5 10 9 9 8 8 9 10
Wind_Speed
9 10 11 12 12 12 13 13 14 13 14 13 14 15 16 17 17 20 20 9 6 10 10 5 5 6 7 11 15 22 3 9 15 8 6 5 11 16 21 15 11 12 30 34 29
10 11 12 12 13 13 13 14 13 13 13 13 13 14 15 18 20 19 3 5 10 13 9 7 5 3 5 6 8 4 4 10 16 10 5 9 7 20 16 26 19 30 29 28 29
11 13 13 13 14 14 15 14 13 13 12 12 13 13 13 15 17 5 0 1 5 8 8 10 12 10 13 16 22 18 9 14 24 26 26 9 20 19 26 11 24 26 25 23 24
13 14 14 14 15 15 14 14 13 11 11 11 11 10 11 10 3 2 2 1 3 7 9 5 10 17 7 8 24 7 23 25 29 30 26 4 2 9 29 21 36 40 34 31 24
14 15 15 15 15 15 14 12 11 11 10 10 9 7 9 6 10 5 2 1 2 8 11 5 12 13 6 13 18 8 14 31 32 28 27 15 6 9 16 46 36 35 34 34 29
14 16 16 16 16 15 13 9 11 8 7 7 6 7 5 4 3 4 5 3 2 5 8 6 12 13 18 14 5 19 16 25 24 28 23 8 4 0 21 36 32 34 32 34 31
15 16 16 16 16 15 9 9 10 7 6 5 4 6 8 13 2 5 2 3 1 3 10 16 17 19 14 8 16 21 9 10 12 11 10 21 3 7 38 33 35 30 31 18 28
16 16 17 16 16 13 9 10 8 5 4 4 4 5 7 1 3 8 6 6 5 9 11 11 9 11 10 16 20 8 5 6 10 8 17 10 7 9 39 37 29 36 24 24 32
17 16 16 16 15 11 10 8 6 1 2 3 0 4 8 9 12 8 9 8 6 6 7 8 10 10 13 6 7 6 6 8 11 16 11 10 7 8 21 37 36 44 55 53 45
17 17 15 15 13 10 8 6 5 1 2 2 5 6 7 14 3 8 10 9 5 7 7 5 6 4 4 2 7 7 6 9 9 13 9 9 8 9 17 18 46 44 53 40 33
17 17 14 13 9 6 8 4 7 2 8 11 11 8 8 8 6 6 10 7 9 8 6 13 2 8 14 14 12 9 6 8 9 13 2 9 2 6 11 5 32 33 29 26 41
17 16 13 10 5 4 7 10 6 8 11 17 17 13 8 3 6 10 10 8 12 8 10 1 9 15 9 4 4 8 8 11 11 9 3 3 5 6 9 7 30 28 29 33 29
17 16 12 8 2 5 6 7 11 11 5 13 19 10 7 9 11 15 14 14 10 9 10 8 10 8 2 7 7 6 6 8 9 11 9 4 7 9 10 16 18 27 27 43 47
17 16 12 6 2 7 4 8 8 12 3 6 9 6 9 9 6 14 14 15 6 10 10 8 8 5 5 4 6 5 10 8 12 5 4 3 6 8 8 11 8 20 20 51 57
17 15 9 5 3 6 10 11 15 0 3 10 8 14 11 11 13 7 11 12 10 12 6 12 7 3 1 9 9 8 6 6 7 8 7 12 3 8 10 8 8 11 31 29 36
16 14 7 4 2 8 11 11 8 2 5 5 8 8 9 16 10 12 8 9 14 8 11 11 10 4 2 8 6 7 7 9 7 2 5 7 4 10 9 7 9 9 25 31 34
15 13 8 8 4 6 14 10 1 3 3 7 6 6 12 10 7 8 8 6 4 3 4 8 4 5 8 2 8 3 1 3 5 1 8 6 6 8 10 27 26 7 10 14 14
15 12 8 8 8 7 8 3 4 7 8 4 5 1 5 1 3 3 4 6 7 1 5 4 7 11 4 0 2 6 5 5 3 5 6 6 3 4 21 30 46 46 42 39 27
16 11 5 2 2 5 7 3 5 5 14 4 2 2 5 3 1 6 5 4 3 7 3 4 7 6 16 8 4 7 4 2 7 6 4 2 9 17 22 21 24 23 33 35 18
18 13 6 4 4 4 1 5 5 10 6 7 3 3 6 5 6 5 4 5 4 8 11 4 3 5 12 7 6 5 2 6 5 2 7 5 5 2 10 10 15 13 18 26 26
13 7 5 8 5 4 3 6 11 13 8 5 7 7 7 6 2 3 4 9 8 6 4 4 1 6 8 3 9 8 3 6 3 2 3 3 2 6 2 6 4 9 13 16 15
5 2 7 2 3 5 4 5 7 10 7 2 3 5 6 8 7 5 6 4 5 4 3 2 2 3 7 14 10 7 3 4 5 6 1 3 6 8 8 8 11 11 8 15 13
12 8 8 6 2 4 9 14 3 4 3 2 3 4 5 6 5 5 3 5 4 5 3 4 4 4 9 6 6 5 6 3 3 2 4 2 5 4 8 4 9 13 12 14 16
5 3 4 10 12 7 6 7 2 5 2 5 6 9 5 3 5 4 4 5 7 7 8 5 1 3 5 6 4 7 10 3 6 3 4 8 7 10 2 6 9 14 21 17 18
2 3 8 4 7 7 8 9 9 2 4 4 1 6 7 2 6 7 6 2 9 12 5 4 2 3 8 11 13 12 12 9 5 6 5 10 7 6 9 6 9 18 25 24 20
8 7 11 13 13 6 4 5 9 10 1 6 6 6 6 4 6 6 6 6 6 6 5 4 3 4 5 11 14 17 13 11 10 11 11 12 12 8 2 21 23 22 24 22 19
10 5 4 10 8 5 5 7 6 4 6 9 9 6 9 8 10 8 6 7 5 3 4 4 1 0 4 8 14 9 9 9 9 9 8 10 12 9 12 16 19 21 21 20 19
Wind_Direction
331 329 325 323 321 316 313 306 300 300 296 292 290 293 295 301 303 296 285 253 262 292 276 267 275 216 215 273 267 259 292 262 272 293 233 259 120 134 149 116 133 192 154 152 159
335 333 328 328 324 319 318 311 306 302 296 291 288 287 297 303 309 295 271 239 272 284 264 203 224 176 229 272 272 269 244 253 263 282 292 288 228 140 105 82 63 97 125 147 158
336 334 331 329 324 323 318 315 309 303 295 287 282 284 297 307 316 290 123 331 273 255 226 200 242 209 218 241 247 257 251 270 278 289 297 217 121 145 99 70 107 112 134 151 168
335 333 331 328 325 324 321 318 313 310 295 278 276 284 291 305 354 298 49 300 268 219 202 226 257 249 213 225 247 234 259 258 271 280 293 256 3 177 141 166 154 155 147 163 189
336 332 330 330 327 326 325 324 323 310 293 282 277 277 288 289 272 271 244 264 240 188 186 256 286 274 235 236 253 237 251 259 267 276 286 292 337 98 123 150 158 156 162 167 189
337 334 332 331 330 330 330 325 321 306 303 299 281 265 266 271 321 293 236 210 151 169 181 220 255 260 273 282 261 269 263 258 268 275 287 300 224 314 167 163 177 181 166 166 190
339 335 333 331 332 333 330 325 315 295 307 298 273 260 258 230 43 295 253 187 151 283 265 269 262 268 309 311 287 292 296 308 285 269 275 290 277 252 175 172 162 161 161 177 194
341 337 334 333 335 335 329 329 331 289 269 263 265 280 263 204 225 221 243 228 281 245 278 297 309 309 307 298 306 300 299 279 282 276 269 259 257 281 171 161 128 126 135 197 243
341 339 336 335 336 341 337 340 345 350 258 238 115 317 273 227 227 204 212 234 225 256 268 280 295 288 271 271 306 285 239 245 264 248 228 182 226 230 182 158 149 146 155 182 216
342 339 338 335 337 344 351 328 320 306 298 218 233 302 251 243 181 192 219 254 254 263 260 238 240 230 280 206 241 264 239 269 246 250 231 214 201 228 228 249 166 173 181 202 193
342 338 339 335 337 355 12 18 347 319 274 236 275 248 271 149 195 235 213 224 243 222 244 218 154 220 229 231 233 255 292 316 308 321 148 178 212 258 244 196 155 189 195 155 164
342 337 336 338 336 13 19 13 14 323 301 277 253 258 270 280 199 201 188 217 234 241 249 249 232 242 252 271 14 3 345 312 309 315 19 0 311 291 281 224 178 185 183 160 149
342 339 338 340 28 17 0 11 354 321 275 294 226 256 203 203 238 178 183 223 261 257 254 223 244 251 9 343 345 323 290 291 283 310 335 91 317 288 285 258 210 189 193 159 164
342 339 335 338 354 351 299 341 330 324 325 252 188 196 160 199 242 212 184 217 258 237 263 266 260 72 58 307 287 289 256 270 248 324 282 86 278 293 261 269 195 196 193 166 172
337 336 333 328 335 30 348 340 325 344 297 165 168 164 175 210 139 173 190 205 254 281 324 285 308 186 242 249 248 243 356 358 344 347 22 310 13 277 304 276 220 209 207 208 201
335 332 326 275 151 3 344 318 325 8 252 134 145 182 176 221 218 154 181 233 286 296 304 286 292 343 330 344 341 9 354 352 341 333 312 278 242 288 282 252 267 250 209 216 188
332 326 306 255 211 22 326 314 346 221 308 161 186 173 208 211 197 164 170 174 217 309 291 324 322 348 308 226 309 179 53 316 324 337 237 313 324 247 326 47 27 334 36 31 190
330 322 299 273 249 354 324 333 246 262 262 56 23 107 322 277 296 183 187 198 232 23 10 14 350 346 312 28 291 337 172 166 294 316 273 276 259 27 41 39 57 27 47 49 67
333 321 300 147 48 343 300 264 237 2 349 39 220 259 270 202 216 354 288 128 112 55 86 357 337 328 331 325 62 312 343 298 229 292 7 332 359 20 18 30 47 53 50 59 80
338 335 292 155 220 224 247 257 298 288 7 360 340 299 263 256 151 170 279 25 99 76 64 342 334 295 307 293 271 214 6 23 18 47 315 355 61 19 343 7 37 40 55 90 100
340 342 179 168 269 232 221 253 312 69 55 353 338 344 323 350 353 348 25 45 41 42 50 20 43 306 347 311 8 347 28 59 118 178 238 312 224 210 134 304 316 91 68 71 98
341 285 208 178 236 220 230 248 305 102 79 327 302 322 318 356 6 352 67 61 33 358 42 30 212 270 250 284 292 283 1 105 102 295 127 139 269 206 210 197 253 114 8 62 75
338 276 248 247 238 254 287 263 176 16 58 320 317 343 15 354 9 355 39 103 25 62 66 330 342 338 327 337 29 30 42 146 172 360 252 182 273 184 228 177 85 75 133 105 110
331 296 219 220 245 282 318 306 169 111 31 346 1 347 3 338 318 306 310 160 96 113 121 91 228 191 217 264 317 309 315 122 117 109 276 288 306 322 225 136 140 81 88 120 118
284 336 4 331 356 354 1 339 316 105 220 121 6 259 274 268 300 288 324 101 155 145 110 113 237 273 283 293 301 296 295 294 187 236 218 276 273 297 305 70 98 73 83 77 68
342 358 341 305 312 302 316 300 308 294 269 194 183 296 330 21 45 27 22 31 53 316 159 179 253 331 305 299 290 289 285 274 275 275 282 284 283 252 64 79 65 62 61 56 48
358 322 346 296 312 311 256 249 285 320 9 56 58 19 55 24 355 339 330 294 282 327 334 347 156 6 256 307 318 298 257 275 264 255 233 252 254 113 87 73 63 56 53 44 43
Height
1530 1528 1526 1524 1522 1521 1519 1517 1516 1514 1513 1511 1510 1509 1507 1505 1503 1500 1497 1497 1497 1498 1498 1498 1499 1501 1504 1504 1505 1504 1514 1515 1501 1500 1487 1481 1487 1488 1495 1501 1502 1503 1504 1515 1524
1529 1527 1525 1523 1521 1519 1517 1515 1513 1512 1510 1509 1507 1506 1505 1503 1499 1496 1495 1494 1495 1496 1497 1497 1499 1501 1504 1504 1503 1502 1512 1502 1486 1489 1490 1483 1481 1486 1490 1497 1508 1510 1517 1523 1527
1528 1526 1524 1521 1520 1517 1515 1513 1511 1509 1508 1507 1506 1505 1504 1502 1499 1493 1493 1494 1495 1496 1497 1497 1499 1501 1502 1502 1501 1499 1504 1491 1483 1486 1484 1481 1479 1481 1494 1509 1510 1514 1520 1525 1530
1527 1525 1523 1520 1518 1516 1513 1510 1508 1506 1505 1505 1504 1503 1503 1502 1502 1494 1494 1495 1495 1495 1497 1497 1498 1500 1499 1501 1496 1501 1492 1488 1482 1482 1481 1483 1480 1476 1483 1492 1489 1502 1503 1510 1527
1526 1524 1521 1518 1517 1514 1510 1508 1506 1505 1504 1503 1502 1502 1502 1501 1496 1495 1495 1495 1495 1496 1497 1498 1496 1495 1497 1494 1492 1493 1488 1483 1480 1479 1478 1477 1475 1479 1484 1490 1491 1495 1498 1506 1522
1525 1523 1520 1517 1515 1511 1508 1507 1505 1504 1502 1501 1501 1501 1501 1501 1495 1495 1495 1496 1496 1496 1498 1497 1497 1495 1493 1491 1491 1486 1483 1480 1477 1475 1475 1477 1474 1475 1495 1486 1488 1495 1501 1507 1519
1524 1522 1519 1516 1513 1510 1507 1506 1504 1503 1501 1501 1501 1501 1501 1496 1496 1495 1495 1495 1496 1496 1496 1497 1497 1496 1493 1489 1485 1482 1485 1478 1475 1472 1472 1473 1476 1474 1482 1488 1488 1500 1511 1514 1520
1523 1520 1518 1514 1511 1508 1507 1505 1503 1502 1501 1502 1502 1501 1496 1495 1495 1496 1496 1495 1497 1498 1496 1495 1494 1493 1492 1490 1487 1488 1482 1497 1477 1471 1469 1473 1494 1472 1477 1484 1502 1499 1506 1518 1521
1522 1520 1516 1512 1510 1508 1506 1504 1503 1502 1502 1502 1502 1501 1496 1494 1493 1494 1495 1495 1497 1497 1497 1496 1496 1495 1494 1497 1502 1489 1504 1494 1484 1465 1466 1471 1482 1470 1477 1485 1495 1495 1499 1498 1510
1520 1517 1515 1512 1509 1508 1506 1505 1504 1503 1503 1503 1502 1505 1493 1491 1491 1492 1494 1495 1496 1497 1496 1496 1496 1497 1496 1502 1522 1505 1499 1490 1486 1465 1462 1468 1472 1466 1465 1467 1482 1491 1489 1486 1505
1519 1516 1514 1512 1510 1508 1507 1505 1506 1505 1503 1498 1495 1491 1490 1491 1492 1493 1494 1496 1495 1496 1497 1493 1501 1507 1494 1487 1482 1483 1485 1486 1471 1459 1455 1464 1467 1464 1462 1464 1477 1483 1474 1483 1495
1518 1516 1513 1511 1509 1508 1507 1507 1508 1510 1501 1493 1491 1491 1489 1490 1490 1491 1494 1496 1494 1497 1490 1496 1502 1484 1479 1476 1478 1481 1487 1488 1471 1461 1462 1464 1467 1461 1459 1460 1462 1460 1465 1480 1496
1517 1513 1512 1510 1509 1508 1508 1509 1508 1507 1503 1490 1487 1486 1488 1490 1489 1488 1492 1492 1492 1493 1488 1494 1485 1475 1475 1479 1482 1484 1489 1487 1485 1468 1463 1463 1475 1467 1456 1454 1456 1454 1455 1471 1473
1514 1512 1511 1510 1511 1509 1509 1509 1508 1505 1510 1488 1484 1486 1487 1487 1486 1484 1488 1491 1487 1489 1484 1482 1472 1475 1479 1483 1480 1495 1476 1476 1476 1483 1504 1472 1514 1476 1460 1455 1452 1451 1453 1465 1469
1514 1512 1510 1509 1509 1509 1511 1509 1506 1506 1530 1478 1481 1482 1483 1486 1482 1485 1486 1487 1489 1486 1485 1488 1478 1476 1480 1480 1475 1485 1473 1475 1477 1487 1493 1487 1504 1484 1460 1460 1452 1448 1446 1449 1456
1512 1510 1509 1508 1509 1510 1509 1509 1508 1518 1522 1478 1476 1479 1483 1479 1478 1483 1484 1486 1485 1484 1480 1479 1471 1471 1473 1472 1472 1471 1477 1482 1483 1492 1521 1495 1499 1488 1475 1460 1449 1444 1444 1446 1448
1511 1509 1507 1508 1508 1508 1509 1508 1518 1522 1473 1480 1476 1473 1476 1477 1476 1477 1482 1487 1495 1499 1496 1482 1476 1473 1471 1476 1474 1475 1489 1525 1529 1525 1522 1486 1493 1488 1465 1468 1459 1443 1449 1453 1450
1509 1507 1505 1506 1507 1508 1509 1510 1522 1488 1478 1470 1472 1473 1478 1473 1476 1475 1479 1489 1482 1485 1496 1503 1510 1482 1472 1475 1482 1482 1491 1522 1533 1530 1509 1475 1494 1495 1480 1481 1466 1472 1465 1469 1476
1507 1504 1503 1505 1506 1508 1511 1519 1502 1484 1479 1474 1474 1483 1483 1476 1479 1480 1481 1485 1484 1485 1503 1507 1502 1481 1478 1475 1476 1486 1502 1483 1505 1500 1511 1497 1492 1477 1482 1480 1475 1485 1482 1479 1481
1505 1502 1502 1503 1506 1508 1510 1509 1495 1483 1482 1480 1490 1480 1487 1480 1483 1485 1484 1481 1484 1485 1487 1496 1512 1487 1484 1476 1475 1481 1487 1509 1517 1532 1534 1511 1517 1515 1499 1494 1479 1484 1489 1486 1483
1505 1504 1502 1504 1505 1506 1511 1499 1488 1484 1485 1488 1489 1490 1482 1484 1480 1484 1487 1488 1486 1488 1489 1494 1502 1501 1488 1486 1498 1495 1501 1515 1518 1518 1530 1529 1522 1499 1493 1493 1486 1482 1488 1485 1487
1505 1506 1503 1503 1505 1500 1500 1492 1487 1484 1487 1489 1488 1489 1490 1487 1488 1487 1494 1493 1491 1490 1496 1499 1502 1514 1502 1484 1481 1486 1490 1504 1526 1521 1520 1524 1528 1483 1483 1478 1484 1479 1482 1483 1488
1506 1504 1500 1501 1506 1501 1492 1485 1485 1485 1489 1489 1490 1489 1487 1491 1497 1489 1489 1495 1493 1494 1501 1502 1511 1523 1511 1493 1487 1492 1492 1501 1509 1508 1510 1519 1518 1480 1480 1482 1485 1484 1484 1487 1494
1510 1504 1498 1498 1497 1497 1496 1489 1487 1488 1491 1492 1492 1493 1491 1494 1492 1495 1493 1494 1495 1496 1499 1500 1509 1515 1528 1513 1505 1506 1496 1500 1509 1526 1514 1508 1498 1486 1485 1485 1486 1485 1485 1489 1495
1511 1504 1506 1504 1500 1499 1497 1495 1492 1492 1491 1492 1495 1496 1498 1500 1499 1499 1494 1493 1493 1497 1499 1503 1515 1507 1505 1499 1498 1499 1497 1493 1504 1502 1509 1496 1495 1489 1484 1484 1485 1484 1485 1489 1493
1514 1512 1509 1508 1503 1500 1500 1499 1497 1492 1491 1492 1495 1495 1497 1502 1509 1510 1507 1508 1509 1502 1501 1502 1514 1506 1510 1500 1497 1496 1494 1493 1491 1488 1487 1485 1487 1479 1479 1480 1482 1485 1485 1487 1489
1515 1515 1514 1508 1504 1502 1500 1498 1494 1493 1493 1493 1496 1499 1503 1507 1507 1508 1506 1507 1508 1508 1509 1508 1509 1513 1519 1504 1501 1505 1491 1487 1483 1481 1481 1490 1477 1473 1480 1482 1485 1486 1487 1488 1489